Estación meteorológica de Parc Astronòmic del Montsec (La Noguera, Parc Astronòmic del Montsec)

Consulta los datos en tiempo real de la estación meteorológica de Parc Astronòmic del Montsec





Hora UTC 15:45
Temperatura 16.1 ºC
Humedad 51.0 %
Presión 1013.5 hPa
Pluja 0.0 mm
Velocidad viento 1.6 km/h
Dirección viento

Datos diarios 2026-05-08



Hora UTC (invierno +1h; verano +2h)
Temperatura (ºC) Humedad (%) Presión (hPa) Velocidad viento (km/h) Precipitación (mm)
Hora UTC Aire Humedad Presión Vel. Dir. Vel. Max Dir. Intent. máx 5 min.
00:15 11.3 82.0 1014.1 8.0 14.5 0.0
00:30 11.2 81.0 1014.3 4.8 N 14.5 0.0
00:45 11.3 81.0 1014.2 3.2 14.5 0.0
01:00 10.9 81.0 1014.0 14.5 0.0
01:15 10.5 81.0 1014.0 14.5 0.0
01:30 10.2 82.0 1013.9 1.6 N 14.5 0.0
01:45 10.2 82.0 1013.7 14.5 0.0
02:00 9.8 81.0 1013.7 14.5 0.0
02:15 9.8 83.0 1013.5 1.6 14.5 0.0
02:30 9.6 83.0 1013.5 1.6 14.5 0.0
02:45 9.4 81.0 1013.3 3.2 14.5 0.0
03:00 9.3 82.0 1013.3 NNE 14.5 0.0
03:15 9.3 81.0 1013.2 14.5 0.0
03:30 9.2 82.0 1013.0 14.5 0.0
03:45 9.3 82.0 1012.9 1.6 14.5 0.0
04:00 9.2 80.0 1012.9 NNE 14.5 0.0
04:15 8.8 80.0 1012.8 14.5 0.0
04:30 8.9 80.0 1012.8 NNE 14.5 0.0
04:45 8.9 81.0 1012.7 3.2 14.5 0.0
05:00 9.1 79.0 1012.6 NNE 14.5 0.0
05:15 9.1 78.0 1012.5 1.6 14.5 0.0
05:30 9.1 77.0 1012.4 NNE 14.5 0.0
05:45 8.9 79.0 1012.4 14.5 0.0
06:00 9.1 78.0 1012.2 3.2 N 14.5 0.0
06:15 9.3 77.0 1012.1 4.8 14.5 0.0
06:30 9.2 76.0 1012.2 3.2 N 14.5 0.0
06:45 8.9 78.0 1012.2 4.8 N 14.5 0.0
07:00 9.0 78.0 1012.1 14.5 0.0
07:15 8.7 79.0 1012.4 14.5 0.0
07:30 8.6 80.0 1012.5 NNE 14.5 0.0
07:45 9.3 79.0 1012.5 14.5 0.0
08:00 9.4 80.0 1012.8 NNE 14.5 0.0
08:15 10.6 79.0 1012.8 14.5 0.0
08:30 11.4 78.0 1012.9 4.8 N 14.5 0.0
08:45 11.3 79.0 1012.8 3.2 14.5 0.0
09:00 12.3 78.0 1012.9 14.5 0.0
09:15 12.6 77.0 1012.9 1.6 14.5 0.0
09:30 13.1 73.0 1012.9 NNE 14.5 0.0
09:45 13.4 71.0 1013.0 NNE 14.5 0.0
10:00 13.4 68.0 1012.8 4.8 14.5 0.0
10:15 13.7 65.0 1013.2 14.5 0.0
10:30 13.7 64.0 1013.3 6.4 14.5 0.0
10:45 13.8 64.0 1013.5 6.4 14.5 0.0
11:00 13.7 63.0 1013.8 3.2 14.5 0.0
11:15 14.7 65.0 1014.0 11.3 14.5 0.0
11:30 14.6 62.0 1013.9 NNE 14.5 0.0
11:45 14.6 62.0 1014.0 3.2 14.5 0.0
12:00 14.8 61.0 1014.0 11.3 14.5 0.0
12:15 15.7 57.0 1013.6 6.4 14.5 0.0
12:30 15.5 55.0 1013.5 14.5 0.0
12:45 14.8 54.0 1013.6 12.9 NNE 14.5 0.0
13:00 14.9 51.0 1013.5 17.7 17.7 E 0.0
13:15 14.9 53.0 1013.7 14.5 NNE 17.7 E 0.0
13:30 14.9 48.0 1013.7 4.8 17.7 E 0.0
13:45 15.7 47.0 1013.5 3.2 N 17.7 E 0.0
14:00 15.8 47.0 1013.6 1.6 17.7 E 0.0
14:15 16.1 49.0 1013.5 14.5 17.7 E 0.0
14:30 16.6 46.0 1013.5 3.2 17.7 E 0.0
14:45 17.1 47.0 1013.5 4.8 17.7 E 0.0
15:00 16.9 47.0 1013.7 11.3 NNE 17.7 E 0.0
15:15 16.8 47.0 1013.7 17.7 17.7 ESE 0.0
15:30 16.6 50.0 1013.7 9.7 17.7 ESE 0.0
15:45 16.1 51.0 1013.5 1.6 17.7 ESE 0.0
Máxima 17.1 83.0 1014.3 17.7 17.7 ESE 0.0
Mínima 8.6 46.0 1012.1
Total 0.0